This demonstration page uses our WeatherBlox Daily Observations layout. Learn more.

Hourly Observations for January 23, 2019

Temp ( °F °C ) Dew Point ( °F °C ) Humidity (%) Winds ( mph kmh ) Pressure ( in mb ) Visibility ( mi km ) Precip ( " mm )
12:15 am 00:15 Cloudy 20 -6.5 18 -8 89 89 N 8 13 30.24 1024 10 16.0934 0 0
12:35 am 00:35 Cloudy 19 -7.5 16 -8.9 90 90 N 7 11 30.24 1024 10 16.0934 0 0
12:55 am 00:55 Cloudy 18 -7.8 16 -9 91 91 N 5 7 30.24 1024 10 16.0934 0 0
1:15 am 01:15 Mostly Cloudy 17 -8.2 15 -9.5 90 90 NNW 5 7 30.24 1024 10 16.0934 0 0
1:35 am 01:35 Partly Cloudy 14 -9.8 13 -10.5 95 95 NW 3 6 30.27 1025 10 16.0934 0 0
1:55 am 01:55 Mostly Cloudy 10 -12 9 -12.6 95 95 WNW 5 7 30.3 1026 10 16.0934 0 0
2:15 am 02:15 Partly Cloudy 12 -11.3 11 -11.6 98 98 WNW 3 6 30.27 1025 10 16.0934 0 0
2:35 am 02:35 Clear 11 -11.8 10 -12.1 98 98 Calm 30.3 1026 10 16.0934 0 0
2:55 am 02:55 Clear 9 -12.7 9 -13 98 98 WNW 5 7 30.3 1026 10 16.0934 0 0
3:15 am 03:15 Clear 9 -12.9 8 -13.1 98 98 WNW 6 9 30.3 1026 10 16.0934 0 0
3:35 am 03:35 Clear 10 -12.1 10 -12.4 98 98 WNW 6 9 30.3 1026 10 16.0934 0 0
3:55 am 03:55 Clear 10 -12.1 9 -12.6 96 96 WNW 3 6 30.27 1025 10 16.0934 0 0
4:15 am 04:15 Clear 8 -13.2 7 -13.8 95 95 WNW 6 9 30.27 1025 10 16.0934 0 0
4:35 am 04:35 Clear 10 -12 10 -12.5 96 96 W 7 11 30.27 1025 10 16.0934 0 0
4:55 am 04:55 Clear 10 -12.5 9 -13 96 96 W 6 9 30.27 1025 10 16.0934 0 0
5:15 am 05:15 Clear 9 -12.7 8 -13.4 95 95 W 6 9 30.24 1024 10 16.0934 0 0
5:35 am 05:35 Clear 9 -12.9 8 -13.5 95 95 W 6 9 30.24 1024 10 16.0934 0 0
5:55 am 05:55 Clear 10 -12.1 9 -12.6 96 96 WSW 3 6 30.21 1023 10 16.0934 0 0
6:15 am 06:15 Clear 11 -11.8 10 -12.3 96 96 W 3 6 30.21 1023 10 16.0934 0 0
6:35 am 06:35 Clear 10 -12.1 9 -12.6 96 96 W 6 9 30.18 1022 10 16.0934 0 0
6:55 am 06:55 Clear 11 -11.8 10 -12.5 95 95 W 6 9 30.18 1022 10 16.0934 0 0
7:15 am 07:15 Clear 10 -12.1 9 -12.8 95 95 WSW 6 9 30.18 1022 10 16.0934 0 0
7:35 am 07:35 Clear 12 -11.3 10 -12 95 95 WSW 6 9 30.18 1022 10 16.0934 0 0
7:55 am 07:55 Sunny 11 -11.5 10 -12.1 95 95 WSW 6 9 30.18 1022 10 16.0934 0 0
8:15 am 08:15 Sunny 12 -11.2 10 -12 94 94 W 8 13 30.18 1022 10 16.0934 0 0
8:35 am 08:35 Sunny 12 -11.1 10 -12 93 93 W 8 13 30.18 1022 10 16.0934 0 0
8:55 am 08:55 Sunny 13 -10.3 12 -11.2 93 93 W 8 13 30.18 1022 10 16.0934 0 0
9:15 am 09:15 Sunny 14 -10.2 12 -11.3 92 92 W 6 9 30.18 1022 10 16.0934 0 0
9:35 am 09:35 Sunny 15 -9.4 12 -10.9 89 89 W 9 15 30.15 1021 10 16.0934 0 0
9:55 am 09:55 Sunny 17 -8.5 13 -10.5 86 86 W 8 13 30.15 1021 10 16.0934 0 0
10:15 am 10:15 Sunny 19 -7.5 14 -9.9 83 83 W 9 15 30.15 1021 10 16.0934 0 0
10:35 am 10:35 Sunny 20 -6.4 15 -9.3 80 80 W 8 13 30.12 1020 10 16.0934 0 0
10:55 am 10:55 Sunny 22 -5.5 16 -8.9 77 77 WNW 8 13 30.12 1020 10 16.0934 0 0
11:15 am 11:15 Sunny 22 -5.5 16 -8.8 78 78 W 6 9 30.12 1020 10 16.0934 0 0
11:35 am 11:35 Sunny 24 -4.6 17 -8.1 77 77 W 8 13 30.12 1020 10 16.0934 0 0
11:55 am 11:55 Sunny 25 -3.9 19 -7.5 76 76 W 7 11 30.06 1018 10 16.0934 0 0
12:15 pm 12:15 Sunny 26 -3.4 20 -6.9 77 77 W 8 13 30.06 1018 10 16.0934 0 0
12:35 pm 12:35 Sunny 28 -2.5 21 -6 77 77 W 9 15 30.06 1018 10 16.0934 0 0
12:55 pm 12:55 Sunny 29 -1.6 23 -5.2 77 77 WNW 8 13 30.03 1017 10 16.0934 0 0
1:15 pm 13:15 Sunny 32 -0.1 24 -4.6 72 72 W 9 15 30 1016 10 16.0934 0 0
1:35 pm 13:35 Sunny 32 0.2 24 -4.7 70 70 W 12 19 30 1016 10 16.0934 0 0
1:55 pm 13:55 Sunny 34 0.9 24 -4.4 68 68 WNW 7 11 30 1016 10 16.0934 0 0
2:15 pm 14:15 undefined N/A N/A N/A undefined N/A N/A N/A 0 0
2:35 pm 14:35 Sunny with Thunderstorms 35 1.5 25 -3.8 68 68 W 8 13 29.97 1015 10 16.0934 0 0
2:55 pm 14:55 Sunny 35 1.8 26 -3.5 68 68 WSW 6 9 29.94 1014 10 16.0934 0 0
3:15 pm 15:15 Sunny 36 2.3 26 -3.6 65 65 WSW 7 11 29.94 1014 10 16.0934 0 0
3:35 pm 15:35 Sunny 37 2.7 26 -3.1 66 66 W 9 15 29.94 1014 10 16.0934 0 0
3:55 pm 15:55 Sunny 37 3 27 -2.8 66 66 W 8 13 29.94 1014 10 16.0934 0 0
4:15 pm 16:15 Sunny 37 2.7 28 -2.4 69 69 WSW 6 9 29.94 1014 10 16.0934 0 0
4:35 pm 16:35 Sunny 37 3 28 -2.2 69 69 WSW 6 9 29.94 1014 10 16.0934 0 0
4:55 pm 16:55 Sunny 37 3 28 -2.2 69 69 WSW 8 13 29.94 1014 10 16.0934 0 0
5:15 pm 17:15 Sunny 36 2.2 27 -2.6 71 71 WSW 7 11 29.94 1014 10 16.0934 0 0
5:35 pm 17:35 Sunny 35 1.5 28 -2.4 76 76 W 9 15 29.97 1015 10 16.0934 0 0
5:55 pm 17:55 Clear 35 1.6 27 -2.6 74 74 W 10 17 29.94 1014 10 16.0934 0 0
6:15 pm 18:15 Clear 35 1.5 27 -2.7 74 74 WSW 8 13 29.97 1015 10 16.0934 0 0
6:35 pm 18:35 Clear 35 1.5 27 -2.8 73 73 W 9 15 29.97 1015 10 16.0934 0 0
6:55 pm 18:55 Clear 34 1 27 -3 75 75 W 8 13 29.97 1015 10 16.0934 0 0
7:15 pm 19:15 Clear 34 1 27 -2.8 76 76 W 9 15 29.97 1015 10 16.0934 0 0
7:35 pm 19:35 Clear 34 1.1 27 -3 74 74 W 9 15 29.97 1015 10 16.0934 0 0
7:55 pm 19:55 Clear 33 0.3 26 -3.1 78 78 W 8 13 30 1016 10 16.0934 0 0
8:15 pm 20:15 Clear 32 0 26 -3.4 78 78 W 7 11 30 1016 10 16.0934 0 0
8:35 pm 20:35 Clear 31 -0.5 25 -3.9 78 78 WNW 6 9 30 1016 10 16.0934 0 0
8:55 pm 20:55 Clear 30 -1.3 24 -4.3 80 80 WNW 6 9 30.06 1018 10 16.0934 0 0
9:15 pm 21:15 Clear 28 -2.5 23 -5 83 83 NW 7 11 30.06 1018 10 16.0934 0 0
9:35 pm 21:35 Clear 26 -3.4 22 -5.4 86 86 NW 6 9 30.06 1018 10 16.0934 0 0
9:55 pm 21:55 Clear 26 -3.5 22 -5.5 86 86 NW 6 9 30.06 1018 10 16.0934 0 0
10:15 pm 22:15 Clear 26 -3.6 22 -5.5 87 87 NW 7 11 30.06 1018 10 16.0934 0 0
10:35 pm 22:35 Clear 25 -3.7 22 -5.6 87 87 WNW 6 9 30.06 1018 10 16.0934 0 0
10:55 pm 22:55 Clear 25 -4 21 -6.1 86 86 NW 8 13 30.06 1018 10 16.0934 0 0
11:15 pm 23:15 Clear 25 -4.1 21 -6.3 85 85 NW 7 11 30.12 1020 10 16.0934 0 0
11:35 pm 23:35 Clear 25 -3.9 21 -5.9 86 86 NW 6 9 30.12 1020 10 16.0934 0 0
11:55 pm 23:55 Clear 25 -3.7 21 -5.9 85 85 NW 7 11 30.09 1019 10 16.0934 0 0

Powered by AerisWeather